#timestamp,LO_Frequency,Hit,StdDev 
1582902015.1,286046999.9,N
1582902016.0,286046999.9,N
1582902035.8,286047000.5,N
1582902055.7,286047002.8,N
1582902075.5,286047002.5,N
1582902095.3,286047002.8,N
1582902115.2,286047002.6,N
1582902135.0,286047002.1,N
1582902135.9,286047002.1,N
1582902155.8,286047003.6,N
1582902175.6,286047003.2,N
1582902195.4,286047003.8,N
1582902215.3,286047002.2,N
1582902235.1,286047002.2,N
1582902255.9,286047002.7,N
1582902275.7,286047000.5,N
1582902295.5,286047002.3,N
1582902315.4,286046998.2,N
1582902335.2,286046998.4,N
1582902355.0,286047002.7,N
1582902356.0,286047002.7,N
1582902375.8,286047002.7,N
1582902395.6,286047000.2,N
1582902415.5,286046999.9,N
1582902435.3,286047002.7,N
1582902455.1,286047001.0,N
1582902475.9,286047002.7,N
1582902495.7,286047000.0,N
1582902515.6,286047000.6,N
1582902535.4,286047000.8,N
1582902555.2,286047002.8,N
1582902575.1,286047000.5,N
1582902576.0,286047000.5,N
1582902595.8,286047000.8,N
1582902615.7,286046998.5,N
1582902635.5,286047000.8,N
1582902655.3,286046998.2,N
1582902675.2,286046998.6,N
1582902695.0,286047000.9,N
1582902695.9,286047000.9,N
1582902715.7,286047000.8,N
1582902735.6,286047001.0,N
1582902755.4,286047000.1,N
1582902775.3,286047002.7,N
1582902795.1,286047003.9,N
1582902796.0,286047003.9,N
1582902815.8,286047004.1,N
1582902835.7,286047004.4,N
1582902855.5,286047001.8,N
1582902875.4,286047001.3,N
1582902895.2,286047001.7,N
1582902915.0,286047001.5,N
1582902915.9,286047001.5,N
1582902935.8,286047002.2,N
1582902955.6,286047003.5,N
1582902975.5,286047005.5,Y
1582902995.3,286047002.6,P
1582903015.1,286047001.6,N
1582903035.9,286047002.6,P
1582903055.7,286046998.1,Y
1582903075.6,286047001.0,P
1582903095.4,286046998.5,N
1582903115.2,286046997.3,N
1582903135.1,286046997.8,N
1582903136.0,286046997.8,N
1582903155.8,286046996.7,N
1582903175.6,286046997.3,N
1582903195.5,286046996.7,N
1582903215.3,286047000.3,N
1582903235.2,286047002.8,N
1582903255.9,286047001.7,N
1582903275.7,286046999.9,N
1582903295.6,286046998.5,N
1582903315.4,286047001.2,N
1582903335.3,286047002.3,N
1582903355.1,286046999.9,N
1582903356.0,286047011.9,Y
1582903375.8,286046999.7,P
1582903395.7,286046999.7,P
1582903415.5,286046999.7,P
1582903435.3,286047000.1,N
1582903455.2,286047000.7,Y
1582903475.0,286046999.4,P
1582903475.9,286046999.4,P
1582903495.8,286046998.8,P
1582903515.6,286046999.5,N
1582903535.4,286047000.8,N
1582903555.3,286046998.5,N
1582903575.1,286046999.1,N
1582903595.9,286046998.2,N
1582903615.7,286046998.9,N
1582903635.5,286046997.4,Y
1582903655.4,286046997.5,P
1582903675.2,286046996.7,P
1582903695.0,286046997.1,N
1582903696.0,286046997.1,Y
1582903715.8,286047002.5,P
1582903735.6,286047003.1,N
1582903755.5,286047004.2,N
1582903775.3,286047003.5,N
1582903795.1,286047005.2,N
1582903815.9,286047006.9,N
1582903835.7,286047003.7,N
1582903855.6,286047003.8,N
1582903875.4,286047003.7,N
1582903895.2,286047004.0,N
1582903915.1,286047005.8,N
1582903916.0,286047005.8,N
1582903935.8,286047006.7,Y
1582903955.7,286047000.7,P
1582903975.5,286046998.7,N
1582903995.3,286046996.8,N
1582904015.2,286046997.1,N
1582904035.0,286046996.7,N
1582904035.9,286046996.7,N
1582904055.7,286046997.0,N
1582904075.6,286046996.6,N
1582904095.4,286046997.5,N
1582904115.3,286046997.1,N
1582904135.1,286046996.8,N
1582904136.0,286046996.8,N
1582904155.8,286046996.8,N
1582904175.7,286046996.7,N
1582904195.5,286046996.8,N
1582904215.4,286046997.7,N
1582904235.2,286046997.5,N
1582904255.0,286046997.9,N
1582904255.9,286046997.9,N
1582904275.8,286046999.4,N
1582904295.6,286046996.8,N
1582904315.4,286046997.8,N
1582904335.3,286046997.5,N
1582904355.1,286046993.8,Y
1582904375.9,286046998.0,P
1582904395.7,286046997.2,P
1582904415.5,286046996.6,P
1582904435.4,286046999.6,N
1582904455.2,286046999.3,N
1582904475.1,286046998.3,N
1582904476.0,286046998.3,N
1582904495.8,286046998.9,N
1582904515.6,286046999.4,N
1582904535.5,286046997.0,Y
1582904555.3,286047001.2,P
1582904575.2,286046998.4,N
1582904595.9,286046999.1,N
1582904615.7,286046997.4,N
1582904635.6,286046997.7,N
1582904655.4,286046997.8,N
1582904675.3,286046997.9,N
1582904695.1,286046998.0,N
1582904696.0,286046998.0,N
1582904715.8,286046997.7,N
1582904735.7,286046996.6,Y
1582904755.5,286047000.5,P
1582904775.4,286047000.9,N
1582904795.2,286047000.9,N
1582904815.0,286046999.7,N
1582904815.9,286046999.7,N
1582904835.8,286047001.2,N
1582904855.6,286047000.8,N
1582904875.5,286046998.3,N
1582904895.3,286046999.4,N
1582904915.1,286046997.1,N
1582904935.9,286046997.3,N
1582904955.7,286046997.2,N
1582904975.6,286046998.8,N
1582904995.4,286046999.2,N
1582905015.2,286046998.9,N
1582905035.1,286046999.3,N
1582905036.0,286046999.3,N
1582905055.8,286046997.7,N
1582905075.7,286046997.8,N
1582905095.5,286046996.7,N
1582905115.3,286046997.0,N
1582905135.2,286046999.2,N
1582905155.0,286046999.6,N
1582905155.9,286046999.6,N
1582905175.7,286046996.9,N
1582905195.6,286046998.8,N
1582905215.4,286046997.4,N
1582905235.3,286046999.0,N
1582905255.1,286046997.2,N
1582905275.8,286046997.8,N
1582905295.7,286046996.5,N
1582905315.5,286047000.8,N
1582905335.4,286046998.1,N
1582905355.2,286047001.1,N
1582905375.0,286047002.5,N
1582905375.9,286047002.5,N
1582905395.8,286047000.6,N
1582905415.6,286046999.8,N
1582905435.5,286047002.7,N
1582905455.3,286047001.9,N
1582905475.1,286046999.8,N
1582905495.9,286047000.8,N
1582905515.7,286046998.1,N
1582905535.5,286046999.2,N
1582905555.4,286046996.7,N
1582905575.2,286046999.4,N
1582905595.1,286046999.5,N
1582905596.0,286046999.5,N
